Flag for Colombia Weather past 2 weeks in Medellin, Colombia

Now
52 °F

Passing clouds.


Feels Like: 52 °F
Forecast: 57 / 87 °F
Wind: No wind

Location: Rionegro / J. M. Cordova

Current Time: Jul 29, 2014 at 4:31:23 AM

Latest Report: Jul 29, 2014 at 4:00 AM


Visibility: N/A

Pressure: 30.31 "Hg

Humidity: 94%

Dew point: 50 °F

Location of MedellinLocation

Historic Weather in Medellin — Graph

°F

Medellin temperature yesterday

Maximum temperature yesterday: 73 °F (at 3:00 PM)
Minimum temperature yesterday: 57 °F (at 1:00 AM)
Average temperature yesterday: 64 °F

Past Weeks' High & Low Weather Summary

 TemperatureHumidityPressure
High75 °F (Jul 19, 2:00 PM)100% (Jul 20, 3:00 AM)30.39 "Hg (Jul 20, 3:00 AM)
Low48 °F (Jul 17, 5:00 AM)36% (Jul 17, 12:00 PM)30.19 "Hg (Jul 23, 4:00 PM)
Average63 °F72%30.30 "Hg
* Reported Jul 14 3:00 AM — Jul 29 3:00 AM, Medellin, Weather by CustomWeather, © 2014

Note: Actual official high and low records may vary slightly from our data, if they occured in-between our weather recording intervals... More about our weather records

Advertising

Medellin weather history for previous 24 hours

 ConditionsComfort  
Time TempWeatherWind HumidityBarometerVisibility
3:00 AM
Jul 29
54 °FPassing clouds.2 mph94%30.32 "HgN/A
2:00 AM54 °FPassing clouds.No wind88%30.33 "HgN/A
1:00 AM57 °FPassing clouds.No wind88%30.36 "HgN/A
12:00 AM57 °FPassing clouds.No wind88%30.38 "HgN/A
11:00 PM
Jul 28
59 °FPassing clouds.No wind82%30.38 "HgN/A
10:00 PM59 °FPassing clouds.No wind88%30.36 "HgN/A
9:00 PM61 °FPassing clouds.No wind77%30.33 "HgN/A
8:00 PM64 °FPassing clouds.No wind64%30.30 "HgN/A
7:00 PM66 °FPassing clouds.7 mph56%30.27 "HgN/A
6:00 PM70 °FPassing clouds.9 mph46%30.24 "HgN/A
5:00 PM72 °FPassing clouds.10 mph47%30.21 "HgN/A
4:00 PM73 °FPassing clouds.14 mph41%30.23 "HgN/A
3:00 PM73 °FPassing clouds.14 mph41%30.24 "HgN/A
2:00 PM72 °FPassing clouds.15 mph44%30.27 "HgN/A
1:00 PM72 °FPassing clouds.17 mph44%30.29 "HgN/A
12:00 PM72 °FPassing clouds.15 mph44%30.31 "HgN/A
11:00 AM70 °FPassing clouds.12 mph46%30.33 "HgN/A
10:00 AM70 °FPassing clouds.13 mph50%30.36 "HgN/A
9:00 AM66 °FPassing clouds.9 mph64%30.35 "HgN/A
8:00 AM61 °FPassing clouds.No wind83%30.35 "HgN/A
7:00 AM57 °FFog.No wind88%30.35 "HgN/A
6:00 AM57 °FFog.No wind94%30.33 "HgN/A
5:00 AM57 °FPassing clouds.No wind94%30.33 "HgN/A
4:00 AM57 °FPassing clouds.No wind94%30.35 "HgN/A
Weather by CustomWeather, © 2014

See weather overviewHow to use our weather pages